Waarnemingen

Advertentie
Mijn weer
Leuchars, Groot Brittannië (3171): temperatuur & dauwpunt: 18.02.2018 21:00:00 - 24.02.2018 21:00:00 (GMT)Leuchars, Groot Brittannië (3171): temperatuur -20cm & temperatuur -100cm: 18.02.2018 21:00:00 - 24.02.2018 21:00:00 (GMT)Leuchars, Groot Brittannië (3171): windsnelheid & windstoten: 18.02.2018 21:00:00 - 24.02.2018 21:00:00 (GMT)Leuchars, Groot Brittannië (3171): windrichting: 18.02.2018 21:00:00 - 24.02.2018 21:00:00 (GMT)Leuchars, Groot Brittannië (3171): luchtdruk: 18.02.2018 21:00:00 - 24.02.2018 21:00:00 (GMT)Leuchars, Groot Brittannië (3171): zicht: 18.02.2018 21:00:00 - 24.02.2018 21:00:00 (GMT)Leuchars, Groot Brittannië (3171): Zonneschijnduur: 18.02.2018 21:00:00 - 24.02.2018 21:00:00 (GMT)Leuchars, Groot Brittannië (3171): neerslag: 18.02.2018 21:00:00 - 24.02.2018 21:00:00 (GMT)
Datum & Tijd tt [°C] td [°C] tt -20cm [°C] tt -100cm [°C] ff [km/u] ff [kn] fx [km/u] fx [kn] dd ppp [hPa] vv [km] sd [min] rr [mm]
24.02.2018 21:00:00 3,1 0,1 - - 21 11 - - ZZO 1029,4 10 0 0,0
24.02.2018 20:00:00 3,0 -0,2 - - 18 10 - - ZZO 1028,9 10 0 0,0
24.02.2018 19:00:00 3,3 -0,1 - - 18 10 - - ZZO 1028,6 13 0 0,0
24.02.2018 18:00:00 3,8 0,1 - - 21 11 - - ZO 1027,9 9 0 0,0
24.02.2018 17:00:00 4,5 0,4 - - 22 12 - - ZO 1027,2 12 24 0,0
24.02.2018 16:00:00 5,4 -0,1 - - 28 15 - - ZO 1026,9 10 60 0,0
24.02.2018 15:00:00 5,8 0,1 - - 29 16 - - ZO 1026,8 10 60 0,0
24.02.2018 14:00:00 5,6 -0,5 - - 26 14 - - ZO 1026,8 10 60 0,0
24.02.2018 13:00:00 6,0 -0,3 - - 21 11 - - ZZO 1026,7 24 60 0,0
24.02.2018 12:00:00 5,8 0,0 - - 26 14 - - ZZO 1026,9 13 60 0,0
24.02.2018 11:00:00 4,9 -0,2 - - 21 11 - - ZZO 1026,9 10 60 0,0
24.02.2018 10:00:00 4,3 -0,3 - - 21 11 - - ZO 1026,5 10 54 0,0
24.02.2018 09:00:00 2,7 0,2 2,9 5,0 9 5 - - ZO 1026,1 10 24 0,0
24.02.2018 08:00:00 -0,5 -1,9 - - 4 2 - - ZZO 1025,5 10 0 0,0
24.02.2018 07:00:00 0,5 -2,1 - - 4 2 - - ZO 1024,9 10 0 0,0
24.02.2018 06:00:00 1,7 -1,4 - - 16 9 - - ZZO 1024,1 17 0 0,0
24.02.2018 05:00:00 1,2 -1,4 - - 4 2 - - Z 1023,8 10 0 0,0
24.02.2018 04:00:00 1,7 -1,3 - - 16 9 - - ZZO 1023,3 10 0 0,0
24.02.2018 03:00:00 2,4 -1,7 - - 15 8 - - ZZO 1023,2 10 0 0,0
24.02.2018 02:00:00 2,3 -1,8 - - 28 15 46 25 ZZO 1023,0 10 0 0,0
24.02.2018 01:00:00 2,6 -1,6 - - 29 16 - - Z 1022,7 10 0 0,0
24.02.2018 00:00:00 2,7 -1,5 - - 16 9 - - ZZO 1022,7 10 - 0,0
23.02.2018 23:00:00 2,8 -1,6 - - 21 11 - - ZZO 1022,4 10 0 0,0
23.02.2018 22:00:00 3,1 -1,0 - - 21 11 - - ZZO 1022,3 10 0 0,0
23.02.2018 21:00:00 3,2 -1,0 - - 29 16 - - ZZO 1021,9 10 0 0,0
23.02.2018 20:00:00 3,2 0,5 - - 18 10 - - ZZO 1022,1 10 0 0,0
23.02.2018 19:00:00 3,5 0,2 - - 21 11 - - ZZO 1022,0 10 0 0,0
23.02.2018 18:00:00 3,8 0,0 - - 22 12 - - ZZO 1021,8 21 0 0,0
23.02.2018 17:00:00 4,2 -1,3 - - 11 6 - - ZZO 1021,8 10 18 0,0
23.02.2018 16:00:00 4,9 -1,7 - - 28 15 - - Z 1021,7 10 36 0,0
23.02.2018 15:00:00 5,7 -0,4 - - 24 13 - - Z 1022,0 27 60 0,0
23.02.2018 14:00:00 5,2 -1,1 - - 21 11 - - Z 1022,2 10 60 0,0
23.02.2018 13:00:00 4,7 -1,9 - - 21 11 - - Z 1022,7 10 60 0,0
23.02.2018 12:00:00 3,4 -2,1 - - 24 13 - - Z 1023,1 10 60 0,0
23.02.2018 11:00:00 2,7 -2,5 - - 11 6 - - Z 1023,3 10 60 0,0
23.02.2018 10:00:00 2,7 -2,2 - - 5 3 - - OZO 1023,4 16 36 0,0
23.02.2018 09:00:00 0,0 -1,8 3,0 5,2 9 5 - - Z 1023,4 7 12 0,0
23.02.2018 08:00:00 0,0 -2,2 - - 13 7 - - ZZO 1023,1 7 0 0,0
23.02.2018 07:00:00 -0,5 -2,3 - - 8 4 - - ZZO 1022,9 8 0 0,0
23.02.2018 06:00:00 0,1 -1,7 - - 5 3 - - Z 1022,7 8 0 0,0
23.02.2018 05:00:00 0,4 -1,9 - - 5 3 - - Z 1022,9 8 0 0,0
23.02.2018 04:00:00 0,0 -1,8 - - 13 7 - - Z 1022,7 8 0 0,0
23.02.2018 03:00:00 -0,1 -2,1 - - 8 4 - - ZZW 1022,8 10 0 0,0
23.02.2018 02:00:00 0,6 -1,7 - - 16 9 - - ZZW 1022,8 10 0 0,0
23.02.2018 01:00:00 1,1 -1,2 - - 15 8 - - ZZW 1022,8 9 0 0,0
23.02.2018 00:00:00 1,2 -1,1 - - 18 10 - - ZZW 1022,6 10 - 0,0
22.02.2018 23:00:00 1,3 -1,1 - - 13 7 - - Z 1022,9 10 0 0,0
22.02.2018 22:00:00 2,0 -1,0 - - 11 6 - - Z 1022,8 10 0 0,0
22.02.2018 21:00:00 3,4 -0,8 - - 15 8 - - Z 1023,0 10 0 0,0
22.02.2018 20:00:00 3,6 -0,5 - - 16 9 - - Z 1023,2 10 0 0,0
22.02.2018 19:00:00 2,7 -0,4 - - 16 9 - - Z 1023,0 10 0 0,0
22.02.2018 18:00:00 3,1 -0,4 - - 15 8 - - ZZW 1023,0 10 0 0,0
22.02.2018 17:00:00 4,9 0,6 - - 21 11 - - Z 1022,8 10 12 0,0
22.02.2018 16:00:00 5,3 1,3 - - 18 10 - - ZZW 1022,8 30 0 0,0
22.02.2018 15:00:00 5,7 1,4 - - 21 11 - - Z 1023,0 10 18 0,0
22.02.2018 14:00:00 6,1 0,5 - - 18 10 - - Z 1023,6 10 54 0,0
22.02.2018 13:00:00 6,7 1,3 - - 21 11 - - Z 1024,1 10 60 0,0
22.02.2018 12:00:00 6,2 2,1 - - 24 13 - - ZZW 1024,3 10 60 0,0
22.02.2018 11:00:00 4,8 2,2 - - 16 9 - - ZW 1024,6 10 60 0,0
22.02.2018 10:00:00 2,6 2,5 - - 8 4 - - NW 1025,2 10 42 0,2
22.02.2018 09:00:00 -1,5 -1,6 3,2 5,2 2 1 - - O 1025,6 10 24 0,0
22.02.2018 08:00:00 -3,7 -4,0 - - 5 3 - - N 1025,5 10 0 0,0
22.02.2018 07:00:00 -3,6 -3,8 - - 5 3 - - NNW 1025,6 10 0 0,0
22.02.2018 06:00:00 -4,8 -5,2 - - 4 2 - - NNW 1025,5 9 0 0,0
22.02.2018 05:00:00 -4,3 -4,6 - - 4 2 - - NNW 1025,6 8 0 0,0
22.02.2018 04:00:00 -3,6 -3,8 - - 2 1 - - NNW 1025,9 10 0 0,0
22.02.2018 03:00:00 -3,1 -3,2 - - 2 1 - - NNW 1026,2 3,5 0 0,0
22.02.2018 02:00:00 -3,2 -3,3 - - 2 1 - - ZZO 1026,8 0,3 0 0,0
22.02.2018 01:00:00 -2,2 -2,2 - - 0 0 - - N 1027,1 0,1 0 0,0
22.02.2018 00:00:00 -2,3 -2,3 - - 2 1 - - NO 1027,7 4,5 - 0,0
21.02.2018 23:00:00 -2,1 -2,2 - - 4 2 - - NNO 1027,7 4,0 0 0,0
21.02.2018 22:00:00 -1,8 -2,1 - - 4 2 - - N 1027,9 7 0 0,0
21.02.2018 21:00:00 -1,4 -1,7 - - 4 2 - - O 1028,0 6 0 0,0
21.02.2018 20:00:00 -0,4 -1,8 - - 2 1 - - Z 1028,2 10 0 0,0
21.02.2018 19:00:00 2,9 1,9 - - 8 4 - - ZO 1028,1 10 0 0,0
21.02.2018 18:00:00 3,4 1,8 - - 9 5 - - OZO 1028,0 10 0 0,0
21.02.2018 17:00:00 4,7 2,1 - - 13 7 - - OZO 1028,0 10 48 0,0
21.02.2018 16:00:00 5,7 1,8 - - 13 7 - - OZO 1028,1 10 60 0,0
21.02.2018 15:00:00 6,3 0,8 - - 15 8 - - O 1028,4 10 36 0,0
21.02.2018 14:00:00 6,0 0,2 - - 13 7 - - OZO 1028,8 10 48 0,0
21.02.2018 13:00:00 7,5 0,4 - - 8 4 - - OZO 1029,4 10 60 0,0
21.02.2018 12:00:00 6,3 1,3 - - 2 1 - - W 1029,9 10 60 0,0
21.02.2018 11:00:00 5,1 1,2 - - 5 3 - - W 1030,1 10 60 0,0
21.02.2018 10:00:00 2,6 -0,1 - - 9 5 - - W 1030,4 10 60 0,0
21.02.2018 09:00:00 0,9 -0,7 3,5 5,0 8 4 - - WNW 1030,3 10 30 0,0
21.02.2018 08:00:00 -1,0 -1,9 - - 8 4 - - WNW 1030,1 10 0 0,0
21.02.2018 07:00:00 -1,8 -3,0 - - 8 4 - - WNW 1030,0 10 0 0,0
21.02.2018 06:00:00 0,3 -1,3 - - 11 6 - - W 1029,9 10 0 0,0
21.02.2018 05:00:00 -0,4 -2,6 - - 9 5 - - WNW 1029,9 10 0 0,0
21.02.2018 04:00:00 1,0 -0,5 - - 11 6 - - W 1030,1 10 0 0,0
21.02.2018 03:00:00 0,8 -1,2 - - 9 5 - - W 1030,5 10 0 0,0
21.02.2018 02:00:00 0,9 -0,3 - - 9 5 - - WNW 1030,5 10 0 0,0
21.02.2018 01:00:00 0,9 -0,6 - - 8 4 - - WNW 1030,4 10 0 0,0
21.02.2018 00:00:00 -0,2 -1,5 - - 5 3 - - WNW 1030,2 10 - 0,0
20.02.2018 23:00:00 -0,2 -2,4 - - 8 4 - - WNW 1029,7 10 0 0,0
20.02.2018 22:00:00 0,8 -1,2 - - 9 5 - - WZW 1029,5 10 0 0,0
20.02.2018 21:00:00 1,6 -0,4 - - 9 5 - - NW 1029,1 10 0 0,0
20.02.2018 20:00:00 3,2 -0,7 - - 8 4 - - NW 1028,7 10 0 0,0
20.02.2018 19:00:00 3,8 0,0 - - 4 2 - - N 1028,3 10 0 0,0
20.02.2018 18:00:00 6,0 0,1 - - 8 4 - - N 1027,9 10 0 0,0
20.02.2018 17:00:00 7,7 1,8 - - 15 8 - - NNO 1027,0 10 18 0,0
20.02.2018 16:00:00 9,3 0,8 - - 15 8 - - N 1026,2 10 48 0,0
20.02.2018 15:00:00 9,6 1,3 - - 16 9 - - N 1025,9 10 54 0,0
20.02.2018 14:00:00 10,3 2,0 - - 16 9 - - NNW 1025,5 10 36 0,0
20.02.2018 13:00:00 9,5 1,6 - - 11 6 - - N 1024,7 10 54 0,0
20.02.2018 12:00:00 9,5 2,7 - - 11 6 - - W 1024,5 30 54 0,0
20.02.2018 11:00:00 8,2 2,8 - - 15 8 - - NW 1023,9 10 54 0,0
20.02.2018 10:00:00 7,2 2,6 - - 15 8 - - W 1023,7 10 60 0,0
20.02.2018 09:00:00 5,7 2,2 3,5 5,0 5 3 - - W 1023,0 10 36 0,0
20.02.2018 08:00:00 4,5 1,6 - - 11 6 - - WNW 1022,1 10 0 0,0
20.02.2018 07:00:00 5,0 2,0 - - 15 8 - - WNW 1021,1 10 0 0,0
20.02.2018 06:00:00 5,0 2,0 - - 16 9 - - WNW 1020,4 40 0 0,0
20.02.2018 05:00:00 5,4 2,3 - - 16 9 - - WNW 1019,6 10 0 0,0
20.02.2018 04:00:00 5,7 2,6 - - 18 10 - - WNW 1018,9 10 0 0,0
20.02.2018 03:00:00 7,0 4,0 - - 21 11 - - WNW 1018,7 50 0 0,0
20.02.2018 02:00:00 7,4 5,3 - - 21 11 - - WNW 1017,4 50 0 0,0
20.02.2018 01:00:00 7,3 7,1 - - 16 9 - - WNW 1017,3 9 0 1,0
20.02.2018 00:00:00 5,3 5,2 - - 2 1 - - WNW 1016,9 0,7 - 0,4
19.02.2018 23:00:00 5,3 5,2 - - 0 0 - - N 1016,8 0,2 0 0,0
19.02.2018 22:00:00 5,4 5,2 - - 2 1 - - Z 1017,0 0,2 0 0,0
19.02.2018 21:00:00 5,4 5,2 - - 2 1 - - N 1017,1 4,0 0 0,0
19.02.2018 20:00:00 5,4 5,2 - - 2 1 - - NNO 1017,4 4,0 0 0,0
19.02.2018 19:00:00 5,2 4,9 - - 2 1 - - NO 1017,0 4,8 0 0,0
19.02.2018 18:00:00 5,5 5,0 - - 4 2 - - NO 1016,9 8 0 0,0
19.02.2018 17:00:00 5,7 5,1 - - 5 3 - - O 1016,8 10 0 0,0
19.02.2018 16:00:00 6,1 5,2 - - 9 5 - - OZO 1016,5 10 0 0,0
19.02.2018 15:00:00 6,3 5,2 - - 8 4 - - OZO 1016,5 9 0 0,0
19.02.2018 14:00:00 6,7 5,6 - - 9 5 - - OZO 1016,1 5 0 0,2
19.02.2018 13:00:00 7,7 6,6 - - 8 4 - - OZO 1015,9 8 0 0,0
19.02.2018 12:00:00 7,7 6,8 - - 2 1 - - N 1015,8 7 0 0,0
19.02.2018 11:00:00 6,5 6,2 - - 4 2 - - WZW 1015,6 9 0 0,0
19.02.2018 10:00:00 5,5 5,2 - - 4 2 - - N 1015,3 5 0 0,0
19.02.2018 09:00:00 5,4 5,2 3,0 4,9 5 3 - - O 1014,8 7 0 0,0
19.02.2018 08:00:00 5,6 5,2 - - 4 2 - - W 1014,6 7 0 0,0
19.02.2018 07:00:00 5,4 5,1 - - 16 9 - - W 1014,1 5 0 0,0
19.02.2018 06:00:00 4,9 4,9 - - 13 7 - - WZW 1013,7 5 0 0,4
19.02.2018 05:00:00 4,5 4,4 - - 4 2 - - W 1013,7 1,8 0 0,2
19.02.2018 04:00:00 4,3 4,3 - - 2 1 - - NNO 1013,5 1,3 0 0,6
19.02.2018 03:00:00 4,4 4,3 - - 5 3 - - N 1013,6 1,6 0 0,6
19.02.2018 02:00:00 4,2 4,1 - - 4 2 - - WNW 1013,6 1,0 0 0,4
19.02.2018 01:00:00 4,3 4,2 - - 0 0 - - N 1013,8 1,4 0 0,4
19.02.2018 00:00:00 4,2 4,1 - - 2 1 - - WNW 1014,2 1,2 - 0,0
18.02.2018 23:00:00 4,2 4,1 - - 2 1 - - N 1014,6 2,4 0 0,0
18.02.2018 22:00:00 4,1 3,9 - - 5 3 - - N 1014,8 2,7 0 0,4
18.02.2018 21:00:00 4,1 3,9 - - 4 2 - - N 1015,1 2,9 0 0,2

tt = temperatuur
td = dauwpunt
tt -20cm = temperatuur -20cm
tt -100cm = temperatuur -100cm
ff = windsnelheid
fx = windstoten
dd = windrichting
ppp = luchtdruk
vv = zicht
sd = Zonneschijnduur
rr = neerslag

Weerstations in de omgeving